TimeCST,TemperatureF,Dew PointF,Humidity,Sea Level PressureIn,VisibilityMPH,Wind Direction,Wind SpeedMPH,Gust SpeedMPH,PrecipitationIn,Events,Conditions,WindDirDegrees,DateUTC
12:15 AM,21.2,17.6,86,30.17,10.0,Calm,Calm,-,N/A,,Scattered Clouds,0,2013-01-05 06:15:00
12:35 AM,21.2,15.8,80,30.16,10.0,Calm,Calm,-,N/A,,Clear,0,2013-01-05 06:35:00
12:55 AM,19.4,15.8,86,30.16,10.0,Calm,Calm,-,N/A,,Scattered Clouds,0,2013-01-05 06:55:00
1:15 AM,21.2,15.8,80,30.16,10.0,Calm,Calm,-,N/A,,Scattered Clouds,0,2013-01-05 07:15:00
1:35 AM,21.2,15.8,80,30.15,10.0,Calm,Calm,-,N/A,,Scattered Clouds,0,2013-01-05 07:35:00
1:55 AM,19.4,14.0,80,30.15,7.0,Calm,Calm,-,N/A,,Scattered Clouds,0,2013-01-05 07:55:00
2:15 AM,21.2,15.8,80,30.15,10.0,Calm,Calm,-,N/A,,Scattered Clouds,0,2013-01-05 08:15:00
2:35 AM,19.4,14.0,80,30.16,10.0,Calm,Calm,-,N/A,,Scattered Clouds,0,2013-01-05 08:35:00
2:55 AM,19.4,14.0,80,30.15,7.0,Calm,Calm,-,N/A,,Scattered Clouds,0,2013-01-05 08:55:00
3:15 AM,21.2,17.6,86,30.15,10.0,SW,5.8,-,N/A,,Scattered Clouds,220,2013-01-05 09:15:00
3:35 AM,23.0,17.6,80,30.14,10.0,Calm,Calm,-,N/A,,Scattered Clouds,0,2013-01-05 09:35:00
3:55 AM,24.8,17.6,74,30.13,10.0,Calm,Calm,-,N/A,,Scattered Clouds,0,2013-01-05 09:55:00
4:15 AM,24.8,19.4,80,30.12,10.0,Calm,Calm,-,N/A,,Clear,0,2013-01-05 10:15:00
4:35 AM,26.6,19.4,74,30.11,10.0,Calm,Calm,-,N/A,,Clear,0,2013-01-05 10:35:00
4:55 AM,30.2,24.8,80,30.10,10.0,SSW,8.1,-,N/A,,Clear,210,2013-01-05 10:55:00
5:15 AM,32.0,24.8,75,30.09,10.0,SSW,9.2,-,N/A,,Scattered Clouds,200,2013-01-05 11:15:00
5:35 AM,33.8,26.6,75,30.09,10.0,SSW,10.4,-,N/A,,Clear,210,2013-01-05 11:35:00
5:55 AM,33.8,26.6,75,30.08,10.0,SSW,13.8,-,N/A,,Scattered Clouds,210,2013-01-05 11:55:00
6:15 AM,32.0,24.8,75,30.09,10.0,SW,8.1,-,N/A,,Scattered Clouds,220,2013-01-05 12:15:00
6:35 AM,30.2,23.0,75,30.09,10.0,SSW,5.8,-,N/A,,Scattered Clouds,210,2013-01-05 12:35:00
6:55 AM,28.4,21.2,74,30.09,10.0,WSW,3.5,-,N/A,,Scattered Clouds,250,2013-01-05 12:55:00
7:15 AM,28.4,21.2,74,30.09,10.0,Calm,Calm,-,N/A,,Scattered Clouds,0,2013-01-05 13:15:00
7:35 AM,28.4,21.2,74,30.10,10.0,Calm,Calm,-,N/A,,Scattered Clouds,0,2013-01-05 13:35:00
7:55 AM,28.4,21.2,74,30.10,10.0,Calm,Calm,-,N/A,,Scattered Clouds,0,2013-01-05 13:55:00
8:15 AM,26.6,19.4,74,30.10,10.0,Calm,Calm,-,N/A,,Scattered Clouds,0,2013-01-05 14:15:00
8:35 AM,28.4,23.0,80,30.09,10.0,South,3.5,-,N/A,,Scattered Clouds,170,2013-01-05 14:35:00
8:55 AM,33.8,26.6,75,30.09,10.0,SW,4.6,-,N/A,,Scattered Clouds,220,2013-01-05 14:55:00
9:15 AM,33.8,26.6,75,30.09,10.0,SSW,5.8,-,N/A,,Clear,200,2013-01-05 15:15:00
9:55 AM,39.2,30.2,70,30.09,10.0,SSW,12.7,-,N/A,,Clear,210,2013-01-05 15:55:00
10:15 AM,41.0,32.0,70,30.09,10.0,SW,15.0,19.6,N/A,,Clear,220,2013-01-05 16:15:00
11:15 AM,44.6,32.0,61,30.07,10.0,WSW,21.9,27.6,N/A,,Mostly Cloudy,240,2013-01-05 17:15:00
11:55 AM,42.8,30.2,61,30.04,10.0,WSW,18.4,26.5,N/A,,Mostly Cloudy,240,2013-01-05 17:55:00
12:15 PM,42.8,30.2,61,30.03,10.0,SW,21.9,27.6,N/A,,Overcast,230,2013-01-05 18:15:00
12:35 PM,42.8,30.2,61,30.01,10.0,WSW,18.4,-,N/A,,Overcast,240,2013-01-05 18:35:00
12:55 PM,42.8,30.2,61,30.01,10.0,WSW,17.3,24.2,N/A,,Overcast,240,2013-01-05 18:55:00
1:15 PM,42.8,30.2,61,30.00,10.0,WSW,16.1,21.9,N/A,,Mostly Cloudy,250,2013-01-05 19:15:00
1:35 PM,42.8,30.2,61,30.00,10.0,West,17.3,20.7,N/A,,Scattered Clouds,260,2013-01-05 19:35:00
1:55 PM,44.6,30.2,57,30.00,10.0,West,19.6,-,N/A,,Scattered Clouds,270,2013-01-05 19:55:00
2:15 PM,42.8,28.4,57,30.00,10.0,West,19.6,-,N/A,,Scattered Clouds,270,2013-01-05 20:15:00
2:35 PM,42.8,28.4,57,30.00,10.0,West,18.4,-,N/A,,Clear,260,2013-01-05 20:35:00
2:55 PM,41.0,28.4,61,30.01,10.0,West,17.3,23.0,N/A,,Scattered Clouds,260,2013-01-05 20:55:00
3:15 PM,41.0,26.6,57,30.03,10.0,West,17.3,-,N/A,,Clear,270,2013-01-05 21:15:00
3:35 PM,39.2,24.8,56,30.03,10.0,West,15.0,-,N/A,,Clear,260,2013-01-05 21:35:00
3:55 PM,39.2,24.8,56,30.04,10.0,West,13.8,18.4,N/A,,Clear,270,2013-01-05 21:55:00
4:15 PM,39.2,23.0,52,30.05,10.0,West,10.4,-,N/A,,Clear,280,2013-01-05 22:15:00
4:55 PM,35.6,21.2,56,30.06,10.0,WNW,5.8,-,N/A,,Clear,290,2013-01-05 22:55:00
5:15 PM,33.8,21.2,60,30.08,10.0,West,5.8,-,N/A,,Scattered Clouds,270,2013-01-05 23:15:00
5:35 PM,32.0,21.2,64,30.07,10.0,West,6.9,-,N/A,,Clear,270,2013-01-05 23:35:00
5:55 PM,30.2,21.2,69,30.08,10.0,West,5.8,-,N/A,,Scattered Clouds,270,2013-01-05 23:55:00
6:15 PM,30.2,19.4,64,30.08,10.0,WSW,4.6,-,N/A,,Scattered Clouds,240,2013-01-06 00:15:00
6:35 PM,28.4,19.4,69,30.09,10.0,WSW,4.6,-,N/A,,Scattered Clouds,250,2013-01-06 00:35:00
6:55 PM,26.6,19.4,74,30.10,10.0,West,3.5,-,N/A,,Scattered Clouds,260,2013-01-06 00:55:00
7:15 PM,26.6,19.4,74,30.10,10.0,WSW,6.9,-,N/A,,Scattered Clouds,250,2013-01-06 01:15:00
7:55 PM,28.4,19.4,69,30.11,10.0,West,4.6,-,N/A,,Scattered Clouds,260,2013-01-06 01:55:00
8:15 PM,26.6,19.4,74,30.12,10.0,West,3.5,-,N/A,,Scattered Clouds,270,2013-01-06 02:15:00
8:35 PM,30.2,21.2,69,30.13,10.0,NNW,4.6,-,N/A,,Scattered Clouds,340,2013-01-06 02:35:00
8:55 PM,28.4,21.2,74,30.15,10.0,Calm,Calm,-,N/A,,Scattered Clouds,0,2013-01-06 02:55:00
9:15 PM,30.2,21.2,69,30.15,10.0,NNW,11.5,-,N/A,,Scattered Clouds,330,2013-01-06 03:15:00
9:35 PM,28.4,19.4,69,30.15,10.0,NNW,16.1,20.7,N/A,,Scattered Clouds,340,2013-01-06 03:35:00
9:55 PM,28.4,19.4,69,30.15,10.0,NW,16.1,21.9,N/A,,Scattered Clouds,310,2013-01-06 03:55:00
10:15 PM,28.4,19.4,69,30.17,10.0,NW,11.5,17.3,N/A,,Mostly Cloudy,320,2013-01-06 04:15:00
10:35 PM,28.4,19.4,69,30.17,10.0,NW,10.4,-,N/A,,Overcast,310,2013-01-06 04:35:00
10:55 PM,28.4,19.4,69,30.18,10.0,NW,10.4,17.3,N/A,,Overcast,310,2013-01-06 04:55:00
11:15 PM,28.4,17.6,64,30.19,10.0,NW,10.4,17.3,N/A,,Overcast,320,2013-01-06 05:15:00
11:35 PM,26.6,17.6,69,30.19,10.0,NW,15.0,21.9,N/A,,Overcast,320,2013-01-06 05:35:00
11:55 PM,26.6,15.8,64,30.21,10.0,NW,16.1,26.5,N/A,,Overcast,320,2013-01-06 05:55:00